Weather History for KDOV - July, 2012

Change the Weather History Date:

Monday, July 30, 2012

  Actual Average Record
Temperature  
Mean Temperature 76 °F -  
Max Temperature 82 °F 86 °F 100 °F (1949)
Min Temperature 71 °F 67 °F 55 °F (1981)
Cooling Degree Days 11    
Growing Degree Days 26 (Base 50)    
Moisture  
Dew Point 70 °F    
Average Humidity 80    
Maximum Humidity 100    
Minimum Humidity 65    
Precipitation  
Precipitation 0.00 in - - ()
Sea Level Pressure  
Sea Level Pressure 30.07 in    
Wind  
Wind Speed 6 mph (ESE)    
Max Wind Speed 15 mph    
Max Gust Speed 20 mph    
Visibility 10 miles    
Events      
Averages and records for this station are not official NWS values.
T = Trace of Precipitation, MM = Missing Value Source: NWS Daily Summary

Daily Weather History Graph

Daily Weather History Graph

Search for Another Location

Airport or City:

Trip Planner

Search our weather history database for the weather conditions in past years. The results will help you decide how hot, cold, wet, or windy it might be!

Date:

Astronomy

Jul. 30, 2012 Rise Set
Actual Time 6:00 AM EDT 8:15 PM EDT
Civil Twilight 5:30 AM EDT 8:44 PM EDT
Nautical Twilight 4:54 AM EDT 9:21 PM EDT
Astronomical Twilight 4:13 AM EDT 10:01 PM EDT
Moon 6:14 PM EDT (7/30) 3:13 AM EDT (7/30)
Length of Visible Light 15h 13m
Length of Day
14h 14m
Waxing Gibbous, 92% of the Moon is Illuminated
Jul 30
Waxing Gibbous
Aug 1
Full
Aug 9
Last Quarter
Aug 17
New
Aug 24
First Quarter

Hourly Weather History & Observations

Time (EDT) Temp. Heat Index Dew Point Humidity Pressure Visibility Wind Dir Wind Speed Gust Speed Precip Events Conditions
12:27 AM 73.4 °F - 71.6 °F 94% 30.04 in 10.0 mi Calm Calm - N/A   Scattered Clouds
12:55 AM 74.1 °F - 71.2 °F 91% 30.03 in 10.0 mi Calm Calm - N/A   Partly Cloudy
1:55 AM 74.3 °F - 71.6 °F 91% 30.03 in 10.0 mi Calm Calm - N/A   Clear
2:55 AM 72.0 °F - 70.9 °F 96% 30.02 in 10.0 mi ESE 3.5 mph - N/A   Clear
3:55 AM 73.6 °F - 71.6 °F 93% 30.02 in 10.0 mi SSE 5.8 mph - N/A   Mostly Cloudy
4:11 AM 73.4 °F - 71.6 °F 94% 30.02 in 10.0 mi SE 5.8 mph - N/A   Mostly Cloudy
4:17 AM 73.4 °F - 71.6 °F 94% 30.03 in 10.0 mi SSE 3.5 mph - N/A   Mostly Cloudy
4:24 AM 73.4 °F - 71.6 °F 94% 30.03 in 10.0 mi Calm Calm - N/A   Mostly Cloudy
4:55 AM 73.0 °F - 71.2 °F 94% 30.04 in 10.0 mi North 3.5 mph - N/A   Overcast
5:31 AM 73.4 °F - 71.6 °F 94% 30.04 in 10.0 mi Calm Calm - N/A   Light Drizzle
5:40 AM 71.6 °F - 71.6 °F 100% 30.05 in 10.0 mi Calm Calm - N/A   Mostly Cloudy
5:55 AM 72.0 °F - 71.1 °F 97% 30.05 in 10.0 mi NNE 4.6 mph - 0.00 in   Scattered Clouds
6:27 AM 73.4 °F - 71.6 °F 94% 30.05 in 10.0 mi ESE 3.5 mph - N/A   Overcast
6:29 AM 73.4 °F - 71.6 °F 94% 30.05 in 10.0 mi ESE 4.6 mph - N/A   Overcast
6:30 AM 73.4 °F - 71.6 °F 94% 30.05 in 10.0 mi ESE 3.5 mph - N/A   Overcast
6:55 AM 74.8 °F - 71.2 °F 88% 30.06 in 10.0 mi ESE 4.6 mph - N/A   Overcast
7:55 AM 76.1 °F - 70.9 °F 84% 30.07 in 10.0 mi East 10.4 mph - N/A   Mostly Cloudy
7:56 AM 77.0 °F - 71.6 °F 83% 30.07 in 10.0 mi East 9.2 mph - N/A   Scattered Clouds
7:58 AM 75.2 °F - 69.8 °F 83% 30.07 in 10.0 mi East 10.4 mph - N/A   Mostly Cloudy
8:01 AM 75.2 °F - 69.8 °F 83% 30.07 in 10.0 mi East 10.4 mph - N/A   Scattered Clouds
8:16 AM 77.0 °F - 69.8 °F 78% 30.08 in 10.0 mi East 9.2 mph - N/A   Mostly Cloudy
8:55 AM 77.4 °F - 69.4 °F 76% 30.09 in 10.0 mi East 10.4 mph - N/A   Mostly Cloudy
9:12 AM 78.8 °F - 69.8 °F 74% 30.09 in 10.0 mi East 9.2 mph - N/A   Mostly Cloudy
9:14 AM 78.8 °F - 69.8 °F 74% 30.09 in 10.0 mi East 10.4 mph - N/A   Mostly Cloudy
9:19 AM 78.8 °F - 69.8 °F 74% 30.09 in 10.0 mi East 10.4 mph - N/A   Mostly Cloudy
9:20 AM 78.8 °F - 68.0 °F 69% 30.09 in 10.0 mi East 10.4 mph - N/A   Mostly Cloudy
9:23 AM 78.8 °F - 68.0 °F 69% 30.09 in 10.0 mi East 11.5 mph - N/A   Mostly Cloudy
9:27 AM 78.8 °F - 68.0 °F 69% 30.09 in 10.0 mi East 9.2 mph - N/A   Mostly Cloudy
9:31 AM 78.8 °F - 68.0 °F 69% 30.09 in 10.0 mi East 9.2 mph - N/A   Mostly Cloudy
9:51 AM 78.8 °F - 68.0 °F 69% 30.09 in 10.0 mi East 10.4 mph - N/A   Mostly Cloudy
9:55 AM 78.1 °F - 68.9 °F 73% 30.09 in 10.0 mi East 11.5 mph - N/A   Mostly Cloudy
10:04 AM 78.8 °F - 69.8 °F 74% 30.09 in 10.0 mi East 10.4 mph - N/A   Mostly Cloudy
10:55 AM 80.1 °F 82.9 °F 68.9 °F 69% 30.09 in 10.0 mi East 11.5 mph - N/A   Scattered Clouds
11:06 AM 80.6 °F 83.9 °F 69.8 °F 70% 30.10 in 10.0 mi ESE 11.5 mph - N/A   Mostly Cloudy
11:09 AM 80.6 °F 83.2 °F 68.0 °F 65% 30.10 in 10.0 mi East 10.4 mph - N/A   Scattered Clouds
11:18 AM 78.8 °F - 68.0 °F 69% 30.10 in 10.0 mi East 10.4 mph - N/A   Mostly Cloudy
11:23 AM 80.6 °F 83.2 °F 68.0 °F 65% 30.10 in 10.0 mi ESE 12.7 mph - N/A   Mostly Cloudy
11:27 AM 80.6 °F 83.2 °F 68.0 °F 65% 30.10 in 10.0 mi ESE 10.4 mph - N/A   Mostly Cloudy
11:41 AM 80.6 °F 83.2 °F 68.0 °F 65% 30.09 in 10.0 mi ESE 10.4 mph - N/A   Mostly Cloudy
11:55 AM 81.1 °F 84.4 °F 69.3 °F 67% 30.10 in 10.0 mi ESE 11.5 mph - N/A   Scattered Clouds
12:55 PM 81.9 °F 85.2 °F 69.1 °F 65% 30.09 in 10.0 mi East 12.7 mph - N/A   Clear
1:55 PM 81.5 °F 84.6 °F 68.9 °F 65% 30.09 in 10.0 mi East 15.0 mph - N/A   Scattered Clouds
2:55 PM 81.3 °F 84.8 °F 70.0 °F 68% 30.06 in 10.0 mi East 11.5 mph - N/A   Partly Cloudy
3:55 PM 81.7 °F 85.4 °F 70.0 °F 68% 30.05 in 10.0 mi East 11.5 mph 18.4 mph N/A   Partly Cloudy
4:55 PM 80.6 °F 83.6 °F 69.3 °F 68% 30.05 in 10.0 mi ESE 12.7 mph 19.6 mph N/A   Clear
5:55 PM 79.5 °F - 68.4 °F 69% 30.05 in 10.0 mi ESE 10.4 mph 17.3 mph N/A   Partly Cloudy
6:55 PM 76.5 °F - 68.9 °F 77% 30.06 in 10.0 mi ESE 5.8 mph - N/A   Clear
7:55 PM 75.6 °F - 68.7 °F 79% 30.05 in 10.0 mi East 6.9 mph - N/A   Clear
8:55 PM 74.8 °F - 69.1 °F 82% 30.05 in 10.0 mi ESE 6.9 mph - N/A   Scattered Clouds
9:12 PM 75.2 °F - 69.8 °F 83% 30.05 in 10.0 mi ESE 4.6 mph - N/A   Mostly Cloudy
9:16 PM 75.2 °F - 68.0 °F 78% 30.06 in 10.0 mi East 5.8 mph - N/A   Scattered Clouds
9:19 PM 75.2 °F - 68.0 °F 78% 30.06 in 10.0 mi ESE 4.6 mph - N/A   Mostly Cloudy
9:55 PM 74.7 °F - 68.9 °F 82% 30.06 in 10.0 mi ESE 5.8 mph - N/A   Scattered Clouds
9:57 PM 75.2 °F - 69.8 °F 83% 30.06 in 10.0 mi ESE 6.9 mph - N/A   Mostly Cloudy
9:59 PM 75.2 °F - 69.8 °F 83% 30.06 in 10.0 mi ESE 4.6 mph - N/A   Scattered Clouds
10:31 PM 75.2 °F - 69.8 °F 83% 30.06 in 10.0 mi ESE 4.6 mph - N/A   Mostly Cloudy
10:33 PM 75.2 °F - 69.8 °F 83% 30.05 in 10.0 mi ESE 4.6 mph - N/A   Scattered Clouds
10:48 PM 75.2 °F - 69.8 °F 83% 30.06 in 10.0 mi East 5.8 mph - N/A   Mostly Cloudy
10:55 PM 74.3 °F - 69.3 °F 84% 30.06 in 10.0 mi ESE 6.9 mph - N/A   Mostly Cloudy
11:15 PM 75.2 °F - 69.8 °F 83% 30.06 in 10.0 mi East 4.6 mph - N/A   Scattered Clouds
11:55 PM 74.5 °F - 69.4 °F 84% 30.05 in 10.0 mi ESE 5.8 mph - N/A   Scattered Clouds